Location: Dampvalley
(47.9094°N, 6.1967°E)
Time: 02:58:44
(UTC+00:00)

N. Korean satellite - Pass Details

Date: 08 December 2022
Orbit: 407 x 444 km, 97.3° (Epoch: 28 January)

Event Time Altitude Azimuth Distance (km) Brightness Sun altitude
Rises 04:00:55 0° 28° (NNE) 2,501 10.5 -30.9°
Reaches altitude 10° 04:03:35 10° 51° (NE) 1,610 9.7 -30.4°
Maximum altitude 04:05:50 16° 92° (E) 1,258 9.4 -30.1°
Drops below altitude 10° 04:08:04 10° 133° (SE) 1,581 9.7 -29.7°
Sets 04:10:38 0° 155° (SSE) 2,433 10.5 -29.3°
